Location: Bruderhein
(53.8035°N, 112.9265°W)
Time: 11:52:58
(UTC+00:00)

DIWATA 2B (PO-101) - Pass Details

Date: 05 April 2023
Orbit: 581 x 593 km, 98.0° (Epoch: 30 May)

Event Time Altitude Azimuth Distance (km) Brightness Sun altitude
Exits shadow 08:43:44 26° 76° (ENE) 1,180 ? -28.4°
Maximum altitude 08:44:19 27° 62° (ENE) 1,152 ? -28.4°
Drops below altitude 10° 08:47:48 10° 5° (N) 1,916 ? -28.2°
Sets 08:50:12 0° 353° (N) 2,823 ? -28.1°
